This demonstration page uses our WeatherBlox Daily Observations layout. Learn more.

Left ArrowRight Arrow

Hourly Observations for August 6, 2022

Temp ( °F °C ) Dew Point ( °F °C ) Humidity (%) Winds ( mph kmh ) Pressure ( in mb ) Visibility ( mi km ) Precip ( " mm )
12:53 am 00:53 Mostly Clear 73 22.8 72 22.2 96 96 NNE 3 6 30.16 1022 10 16 0.00 0.00
1:53 am 01:53 Clear 73 22.8 71 21.7 94 94 Calm 30.16 1021 10 16 0.00 0.00
2:53 am 02:53 Clear 73 22.8 72 22.2 96 96 Calm 30.15 1021 10 16 0.00 0.00
3:53 am 03:53 Clear 73 22.8 72 22.2 96 96 Calm 30.15 1021 10 16 0.00 0.00
4:53 am 04:53 Clear 72 22.2 71 21.7 97 97 Calm 30.16 1021 10 16 0.00 0.00
5:53 am 05:53 Mostly Cloudy 72 22.2 71 21.7 97 97 Calm 30.17 1022 10 16 0.00 0.00
6:53 am 06:53 Clear 72 22.2 71 21.7 97 97 Calm 30.19 1022 10 16 0.00 0.00
7:53 am 07:53 Mostly Sunny 74 23.3 72 22.2 94 94 NE 3 6 30.20 1023 10 16 0.00 0.00
8:11 am 08:11 Mostly Cloudy 74 23.3 73 22.8 97 97 NNE 3 6 30.20 1023 10 16 0.00 0.00
8:53 am 08:53 Cloudy 75 23.9 73 22.8 94 94 ENE 5 7 30.22 1023 10 16 0.00 0.00
9:53 am 09:53 Cloudy 76 24.4 73 22.8 91 91 VRB 3 6 30.23 1024 10 16 0.00 0.00
10:53 am 10:53 Cloudy 81 27.2 73 22.8 77 77 E 7 11 30.24 1024 10 16 0.00 0.00
11:35 am 11:35 Mostly Cloudy 82 27.8 73 22.8 74 74 ENE 5 7 30.22 1024 10 16 0.00 0.00
11:53 am 11:53 Partly Cloudy 83 28.3 73 22.8 72 72 E 7 11 30.24 1024 10 16 0.00 0.00
12:00 pm 12:00 Mostly Cloudy 83 28.3 73 22.8 72 72 VRB 6 9 30.22 1023 10 16 0.00 0.00
12:20 pm 12:20 Partly Cloudy 84 28.9 74 23.3 72 72 ENE 6 9 30.22 1023 10 16 0.00 0.00
12:38 pm 12:38 Mostly Cloudy 84 28.9 73 22.8 70 70 E 5 7 30.22 1023 10 16 0.00 0.00
12:53 pm 12:53 Mostly Cloudy 85 29.4 73 22.8 68 68 undefined N/A 30.23 1024 10 16 0.00 0.00
1:24 pm 13:24 Partly Cloudy 85 29.4 73 22.8 68 68 VRB 7 11 30.20 1023 10 16 0.00 0.00
1:53 pm 13:53 Mostly Sunny 86 30 73 22.8 65 65 E 9 15 30.20 1023 10 16 0.00 0.00
2:28 pm 14:28 Mostly Cloudy 88 31.1 74 23.3 63 63 E 9 15 30.15 1021 10 16 0.00 0.00
2:49 pm 14:49 Mostly Cloudy 88 31 72 22 59 59 VRB 7 11 30.14 1021 10 16 0.00 0.00
2:53 pm 14:53 Mostly Cloudy 88 31.1 73 22.8 61 61 E 10 17 30.17 1022 10 16 0.00 0.00
3:53 pm 15:53 Sunny 90 32.2 72 22.2 56 56 ENE 7 11 30.14 1021 10 16 0.00 0.00
4:53 pm 16:53 Sunny 89 31.7 68 20 50 50 SSW 6 9 30.13 1020 10 16 0.00 0.00
5:53 pm 17:53 Sunny 90 32.2 70 21.1 52 52 SSW 7 11 30.12 1020 10 16 0.00 0.00
6:12 pm 18:12 Sunny with Nearby Thunderstorms 90 32.2 70 21.1 52 52 VRB 5 7 30.09 1019 10 16 0.00 0.00
6:25 pm 18:25 Mostly Sunny 89 31.7 70 21.1 53 53 SW 6 9 30.09 1019 10 16 0.00 0.00
6:53 pm 18:53 Sunny 88 31.1 71 21.7 57 57 W 8 13 30.11 1020 10 16 0.00 0.00
7:42 pm 19:42 Sunny with Nearby Thunderstorms 85 29.4 74 23.3 70 70 VRB 3 6 30.13 1020 10 16 0.00 0.00
7:50 pm 19:50 Partly Cloudy with Thunderstorms 84 29 73 23 70 70 W 5 7 30.13 1020 10 16 0.00 0.00
7:53 pm 19:53 Partly Cloudy with Thunderstorms 85 29.4 74 23.3 70 70 WSW 3 6 30.15 1021 10 16 0.00 0.00
8:10 pm 20:10 Partly Cloudy 84 28.9 74 23.3 72 72 Calm 30.14 1021 10 16 0.00 0.00
8:53 pm 20:53 Clear 83 28.3 71 21.7 67 67 NE 3 6 30.16 1021 10 16 0.00 0.00
9:03 pm 21:03 Mostly Clear with Nearby Thunderstorms 82 27.8 72 22.2 72 72 N 3 6 30.14 1021 10 16 0.00 0.00
9:33 pm 21:33 Cloudy with Thunderstorms 79 26.1 68 20 69 69 ENE 14 22 30.19 1022 10 16 0.00 0.00
9:53 pm 21:53 Cloudy with Thunderstorms 76 24.4 68 20 77 77 ENE 13 20 30.23 1024 9 14 0.00 0.00
10:01 pm 22:01 Cloudy with Strong Thunderstorms 75 23.9 69 20.6 82 82 NNE 9 15 30.24 1024 2 3 0.00 0.00
10:13 pm 22:13 Cloudy with Strong Thunderstorms 73 22.8 71 21.7 94 94 SSE 13 20 30.24 1024 1 2 0.00 0.00
10:48 pm 22:48 Cloudy with Thunderstorms 72 22 70 21 94 94 SSE 10 17 30.24 1024 4 6 0.00 0.00
10:53 pm 22:53 Cloudy with Light Rain 72 22.2 70 21.1 94 94 ESE 8 13 30.24 1024 9 14 0.00 0.00
11:02 pm 23:02 Cloudy with Thunderstorms 72 22.2 69 20.6 91 91 ESE 8 13 30.23 1024 10 16 0.04 1.02
11:44 pm 23:44 Mostly Cloudy with Nearby Thunderstorms 72 22.2 69 20.6 91 91 SE 5 7 30.23 1024 10 16 0.24 6.10
11:53 pm 23:53 Mostly Cloudy 72 22.2 70 21.1 94 94 SW 5 7 30.24 1024 10 16 0.28 7.11

Powered by AerisWeather